| time (UTC) | temp C | wind direction | speed KPH | gust KPH | rain 1hr cm | rain 24hr cm | rain mn cm | humidity % | barometer mb |
| 20260506081015 | 6 | 88 | 14.5 | 22.5 | 0.00 | 0.00 | 0.00 | 80 | 1013.3 |
| 20260506080512 | 6 | 78 | 16.1 | 16.1 | 0.00 | 0.00 | 0.00 | 80 | 1013.2 |
| 20260506073455 | 6 | 70 | 14.5 | 27.4 | 0.00 | 0.00 | 0.00 | 81 | 1012.5 |
| 20260506072952 | 6 | 81 | 17.7 | 27.4 | 0.00 | 0.00 | 0.00 | 81 | 1012.5 |
| 20260506072449 | 6 | 74 | 17.7 | 22.5 | 0.00 | 0.00 | 0.00 | 82 | 1012.6 |
| 20260506071947 | 6 | 71 | 14.5 | 20.9 | 0.00 | 0.00 | 0.00 | 82 | 1013.0 |
| 20260506071445 | 6 | 43 | 9.7 | 17.7 | 0.00 | 0.00 | 0.00 | 82 | 1013.3 |
| 20260506070942 | 5 | 61 | 11.3 | 14.5 | 0.00 | 0.00 | 0.00 | 82 | 1013.7 |
| 20260506070439 | 5 | 4 | 14.5 | 17.7 | 0.00 | 0.00 | 0.00 | 82 | 1013.6 |
| 20260506062416 | 6 | 69 | 16.1 | 20.9 | 0.00 | 0.00 | 0.00 | 79 | 1013.2 |
| 20260506061912 | 6 | 63 | 17.7 | 24.1 | 0.00 | 0.00 | 0.00 | 78 | 1013.1 |
| 20260506061409 | 6 | 77 | 17.7 | 30.6 | 0.00 | 0.00 | 0.00 | 78 | 1012.9 |
| 20260506060907 | 6 | 66 | 17.7 | 24.1 | 0.00 | 0.00 | 0.00 | 77 | 1012.9 |
| 20260506060404 | 6 | 65 | 17.7 | 20.9 | 0.00 | 0.00 | 0.00 | 77 | 1012.8 |
| 20260506051336 | 7 | 82 | 12.9 | 25.7 | 0.00 | 0.00 | 0.00 | 73 | 1011.9 |
| 20260506050834 | 7 | 84 | 11.3 | 20.9 | 0.00 | 0.00 | 0.00 | 73 | 1011.7 |
| 20260506050331 | 7 | 84 | 17.7 | 25.7 | 0.00 | 0.00 | 0.00 | 72 | 1011.5 |
| 20260506044822 | 7 | 83 | 17.7 | 24.1 | 0.00 | 0.00 | 0.00 | 71 | 1011.8 |
| 20260506044320 | 8 | 87 | 20.9 | 27.4 | 0.00 | 0.00 | 0.00 | 70 | 1011.7 |
| 20260506043816 | 8 | 87 | 14.5 | 33.8 | 0.00 | 0.00 | 0.00 | 69 | 1011.7 |
| 20260506043314 | 8 | 78 | 14.5 | 19.3 | 0.00 | 0.00 | 0.00 | 68 | 1011.7 |
| 20260506042812 | 8 | 79 | 14.5 | 22.5 | 0.00 | 0.00 | 0.00 | 67 | 1011.8 |
| 20260506042311 | 8 | 95 | 12.9 | 20.9 | 0.00 | 0.00 | 0.00 | 66 | 1011.6 |
| 20260506041809 | 8 | 74 | 16.1 | 22.5 | 0.00 | 0.00 | 0.00 | 66 | 1011.6 |
| 20260506041305 | 9 | 87 | 19.3 | 24.1 | 0.00 | 0.00 | 0.00 | 65 | 1011.7 |
| 20260506040803 | 9 | 88 | 12.9 | 24.1 | 0.00 | 0.00 | 0.00 | 65 | 1011.6 |
| 20260506040300 | 9 | 82 | 14.5 | 24.1 | 0.00 | 0.00 | 0.00 | 64 | 1011.7 |
| 20260506035756 | 9 | 92 | 16.1 | 20.9 | 0.00 | 0.00 | 0.00 | 64 | 1011.7 |
| 20260506035253 | 9 | 95 | 14.5 | 22.5 | 0.00 | 0.00 | 0.00 | 63 | 1011.7 |
| 20260506034750 | 9 | 87 | 14.5 | 22.5 | 0.00 | 0.00 | 0.00 | 63 | 1011.6 |
| 20260506034248 | 10 | 89 | 22.5 | 25.7 | 0.00 | 0.00 | 0.00 | 62 | 1011.6 |
| 20260506033744 | 10 | 95 | 19.3 | 27.4 | 0.00 | 0.00 | 0.00 | 62 | 1011.5 |
| 20260506033242 | 10 | 92 | 14.5 | 27.4 | 0.00 | 0.00 | 0.00 | 61 | 1011.2 |
| 20260506032738 | 10 | 87 | 17.7 | 20.9 | 0.00 | 0.00 | 0.00 | 61 | 1011.3 |
| 20260506032235 | 10 | 96 | 19.3 | 22.5 | 0.00 | 0.00 | 0.00 | 61 | 1011.6 |
| 20260506031732 | 10 | 87 | 14.5 | 20.9 | 0.00 | 0.00 | 0.00 | 60 | 1011.2 |
| 20260506031229 | 10 | 86 | 11.3 | 17.7 | 0.00 | 0.00 | 0.00 | 60 | 1011.5 |
| 20260506030728 | 10 | 84 | 16.1 | 19.3 | 0.00 | 0.00 | 0.00 | 59 | 1011.3 |
| 20260506030225 | 10 | 74 | 14.5 | 24.1 | 0.00 | 0.00 | 0.00 | 59 | 1011.1 |
| 20260506025722 | 11 | 94 | 14.5 | 27.4 | 0.00 | 0.00 | 0.00 | 58 | 1011.2 |
| 20260506025218 | 11 | 85 | 22.5 | 25.7 | 0.00 | 0.00 | 0.00 | 58 | 1011.1 |
| 20260506024715 | 11 | 75 | 12.9 | 22.5 | 0.00 | 0.00 | 0.00 | 58 | 1011.1 |
| 20260506024211 | 11 | 78 | 16.1 | 25.7 | 0.00 | 0.00 | 0.00 | 57 | 1010.8 |
| 20260506023708 | 11 | 85 | 16.1 | 25.7 | 0.00 | 0.00 | 0.00 | 57 | 1010.7 |
| 20260506023205 | 11 | 100 | 11.3 | 24.1 | 0.00 | 0.00 | 0.00 | 56 | 1010.6 |
| 20260506022702 | 11 | 82 | 17.7 | 24.1 | 0.00 | 0.00 | 0.00 | 56 | 1011.2 |
| 20260506022200 | 11 | 84 | 16.1 | 22.5 | 0.00 | 0.00 | 0.00 | 55 | 1011.2 |
| 20260506021657 | 12 | 88 | 19.3 | 27.4 | 0.00 | 0.00 | 0.00 | 55 | 1011.0 |
| 20260506021154 | 12 | 67 | 12.9 | 24.1 | 0.00 | 0.00 | 0.00 | 55 | 1010.6 |
| 20260506020651 | 12 | 74 | 27.4 | 30.6 | 0.00 | 0.00 | 0.00 | 55 | 1010.2 |
| 20260506020149 | 12 | 66 | 19.3 | 29.0 | 0.00 | 0.00 | 0.00 | 55 | 1010.8 |
| 20260506015647 | 12 | 62 | 22.5 | 30.6 | 0.00 | 0.00 | 0.00 | 53 | 1010.7 |
| 20260506015144 | 12 | 57 | 19.3 | 24.1 | 0.00 | 0.00 | 0.00 | 53 | 1010.7 |
| 20260506014641 | 13 | 64 | 14.5 | 27.4 | 0.00 | 0.00 | 0.00 | 52 | 1010.6 |
| 20260506014136 | 13 | 63 | 27.4 | 27.4 | 0.00 | 0.00 | 0.00 | 51 | 1010.8 |
| 20260506013635 | 13 | 32 | 14.5 | 27.4 | 0.00 | 0.00 | 0.00 | 51 | 1010.4 |
| 20260506013132 | 13 | 41 | 16.1 | 27.4 | 0.00 | 0.00 | 0.00 | 50 | 1010.0 |
| 20260506012628 | 13 | 45 | 14.5 | 27.4 | 0.00 | 0.00 | 0.00 | 50 | 1009.8 |
| 20260506012124 | 13 | 34 | 12.9 | 27.4 | 0.00 | 0.00 | 0.00 | 50 | 1009.7 |
| 20260506011622 | 13 | 51 | 16.1 | 25.7 | 0.00 | 0.00 | 0.00 | 50 | 1009.7 |
| 20260506011118 | 13 | 53 | 20.9 | 22.5 | 0.00 | 0.00 | 0.00 | 49 | 1009.6 |
| 20260506010617 | 13 | 53 | 22.5 | 33.8 | 0.00 | 0.00 | 0.00 | 49 | 1009.3 |
| 20260506010114 | 14 | 62 | 19.3 | 27.4 | 0.00 | 0.00 | 0.00 | 48 | 1009.4 |
| 20260506005611 | 14 | 48 | 16.1 | 22.5 | 0.00 | 0.00 | 0.00 | 48 | 1009.1 |
| 20260506005107 | 14 | 57 | 24.1 | 29.0 | 0.00 | 0.00 | 0.00 | 48 | 1008.8 |
| 20260506004604 | 14 | 70 | 30.6 | 33.8 | 0.00 | 0.00 | 0.00 | 47 | 1009.0 |
| 20260506004101 | 15 | 46 | 20.9 | 29.0 | 0.00 | 0.00 | 0.00 | 47 | 1008.9 |
| 20260506003557 | 15 | 52 | 17.7 | 33.8 | 0.00 | 0.00 | 0.00 | 46 | 1008.8 |
| 20260506003053 | 15 | 64 | 30.6 | 33.8 | 0.00 | 0.00 | 0.00 | 46 | 1008.4 |
| 20260506002549 | 15 | 69 | 25.7 | 29.0 | 0.00 | 0.00 | 0.00 | 45 | 1008.6 |
| 20260506002045 | 15 | 72 | 24.1 | 35.4 | 0.00 | 0.00 | 0.00 | 45 | 1008.6 |
| 20260506001541 | 15 | 59 | 22.5 | 27.4 | 0.00 | 0.00 | 0.00 | 46 | 1008.4 |
| 20260506001039 | 15 | 69 | 30.6 | 35.4 | 0.00 | 0.00 | 0.00 | 45 | 1008.3 |
| 20260506000536 | 15 | 72 | 29.0 | 33.8 | 0.00 | 0.00 | 0.00 | 45 | 1008.7 |
| 20260506000034 | 16 | 81 | 20.9 | 33.8 | 0.00 | 0.00 | 0.00 | 45 | 1008.6 |
| 20260505235531 | 16 | 66 | 24.1 | 30.6 | 0.00 | 0.00 | 0.00 | 44 | 1008.4 |
| 20260505235028 | 16 | 78 | 17.7 | 30.6 | 0.00 | 0.00 | 0.00 | 45 | 1008.7 |
| 20260505234525 | 16 | 69 | 19.3 | 25.7 | 0.00 | 0.00 | 0.00 | 44 | 1008.3 |
| 20260505234022 | 16 | 78 | 11.3 | 27.4 | 0.00 | 0.00 | 0.00 | 44 | 1008.4 |
| 20260505233519 | 16 | 50 | 14.5 | 24.1 | 0.00 | 0.00 | 0.00 | 44 | 1008.6 |
| 20260505233017 | 16 | 95 | 16.1 | 24.1 | 0.00 | 0.00 | 0.00 | 44 | 1008.6 |
| 20260505232514 | 17 | 81 | 12.9 | 20.9 | 0.00 | 0.00 | 0.00 | 44 | 1008.7 |
| 20260505232012 | 16 | 95 | 16.1 | 33.8 | 0.00 | 0.00 | 0.00 | 44 | 1008.7 |
| 20260505231509 | 16 | 53 | 17.7 | 29.0 | 0.00 | 0.00 | 0.00 | 44 | 1008.8 |
| 20260505231008 | 16 | 72 | 11.3 | 24.1 | 0.00 | 0.00 | 0.00 | 44 | 1008.7 |
| 20260505230504 | 16 | 55 | 20.9 | 24.1 | 0.00 | 0.00 | 0.00 | 44 | 1008.8 |
| 20260505230000 | 16 | 92 | 19.3 | 27.4 | 0.00 | 0.00 | 0.00 | 44 | 1008.8 |
| 20260505225458 | 16 | 87 | 20.9 | 27.4 | 0.00 | 0.00 | 0.00 | 44 | 1009.0 |
| 20260505224954 | 16 | 86 | 9.7 | 20.9 | 0.00 | 0.00 | 0.00 | 44 | 1008.8 |
| 20260505224450 | 16 | 76 | 12.9 | 25.7 | 0.00 | 0.00 | 0.00 | 44 | 1009.0 |
| 20260505223948 | 16 | 62 | 17.7 | 29.0 | 0.00 | 0.00 | 0.00 | 44 | 1008.9 |
| 20260505223445 | 16 | 65 | 20.9 | 24.1 | 0.00 | 0.00 | 0.00 | 44 | 1008.9 |
| 20260505222941 | 17 | 48 | 19.3 | 22.5 | 0.00 | 0.00 | 0.00 | 43 | 1009.1 |
| 20260505222437 | 17 | 59 | 17.7 | 22.5 | 0.00 | 0.00 | 0.00 | 43 | 1008.9 |
| 20260505221933 | 17 | 75 | 22.5 | 24.1 | 0.00 | 0.00 | 0.00 | 42 | 1009.1 |
| 20260505221431 | 17 | 57 | 25.7 | 27.4 | 0.00 | 0.00 | 0.00 | 43 | 1008.9 |
| 20260505220928 | 17 | 49 | 14.5 | 19.3 | 0.00 | 0.00 | 0.00 | 42 | 1009.2 |
| 20260505220425 | 17 | 91 | 8.0 | 20.9 | 0.00 | 0.00 | 0.00 | 43 | 1009.3 |
| 20260505215922 | 17 | 63 | 14.5 | 17.7 | 0.00 | 0.00 | 0.00 | 43 | 1009.2 |
| 20260505215420 | 17 | 74 | 22.5 | 22.5 | 0.00 | 0.00 | 0.00 | 42 | 1009.3 |
| 20260505214918 | 17 | 66 | 14.5 | 29.0 | 0.00 | 0.00 | 0.00 | 41 | 1009.0 |
| 20260505214415 | 17 | 67 | 17.7 | 25.7 | 0.00 | 0.00 | 0.00 | 41 | 1009.4 |
| 20260505213912 | 18 | 51 | 12.9 | 17.7 | 0.00 | 0.00 | 0.00 | 41 | 1009.8 |
| 20260505213410 | 18 | 41 | 6.4 | 16.1 | 0.00 | 0.00 | 0.00 | 40 | 1009.8 |
| 20260505212906 | 18 | 74 | 6.4 | 9.7 | 0.00 | 0.00 | 0.00 | 40 | 1010.1 |
| 20260505212403 | 17 | 93 | 8.0 | 12.9 | 0.00 | 0.00 | 0.00 | 43 | 1009.9 |
| 20260505211859 | 17 | 32 | 12.9 | 19.3 | 0.00 | 0.00 | 0.00 | 42 | 1010.2 |
| 20260505211357 | 17 | 114 | 8.0 | 12.9 | 0.00 | 0.00 | 0.00 | 43 | 1010.2 |
| 20260505210853 | 17 | 65 | 9.7 | 16.1 | 0.00 | 0.00 | 0.00 | 42 | 1010.3 |
| 20260505210350 | 16 | 92 | 12.9 | 17.7 | 0.00 | 0.00 | 0.00 | 43 | 1010.3 |
| 20260505205847 | 17 | 22 | 12.9 | 17.7 | 0.00 | 0.00 | 0.00 | 43 | 1010.3 |
| 20260505205346 | 17 | 44 | 8.0 | 14.5 | 0.00 | 0.00 | 0.00 | 42 | 1010.6 |
| 20260505204842 | 16 | 299 | 6.4 | 9.7 | 0.00 | 0.00 | 0.00 | 43 | 1010.7 |
| 20260505204340 | 16 | 7 | 12.9 | 22.5 | 0.00 | 0.00 | 0.00 | 43 | 1011.0 |
| 20260505203837 | 17 | 35 | 9.7 | 17.7 | 0.00 | 0.00 | 0.00 | 43 | 1010.6 |
| 20260505203333 | 17 | 96 | 9.7 | 16.1 | 0.00 | 0.00 | 0.00 | 43 | 1010.8 |
| 20260505202830 | 16 | 74 | 20.9 | 24.1 | 0.00 | 0.00 | 0.00 | 45 | 1010.8 |
| 20260505202326 | 17 | 69 | 19.3 | 24.1 | 0.00 | 0.00 | 0.00 | 43 | 1010.7 |
| 20260505201823 | 16 | 22 | 6.4 | 17.7 | 0.00 | 0.00 | 0.00 | 44 | 1010.8 |
| 20260505201320 | 16 | 2 | 12.9 | 17.7 | 0.00 | 0.00 | 0.00 | 44 | 1010.9 |
| 20260505200818 | 16 | 16 | 9.7 | 16.1 | 0.00 | 0.00 | 0.00 | 44 | 1010.7 |
| 20260505200315 | 16 | 20 | 11.3 | 24.1 | 0.00 | 0.00 | 0.00 | 44 | 1011.0 |
| 20260505195810 | 16 | 2 | 12.9 | 16.1 | 0.00 | 0.00 | 0.00 | 45 | 1010.7 |
| 20260505195308 | 16 | 74 | 17.7 | 20.9 | 0.00 | 0.00 | 0.00 | 45 | 1010.8 |
| 20260505194805 | 16 | 52 | 20.9 | 22.5 | 0.00 | 0.00 | 0.00 | 47 | 1010.4 |
| 20260505194302 | 16 | 23 | 12.9 | 20.9 | 0.00 | 0.00 | 0.00 | 45 | 1010.7 |
| 20260505193757 | 16 | 57 | 14.5 | 27.4 | 0.00 | 0.00 | 0.00 | 45 | 1010.7 |
| 20260505193255 | 16 | 67 | 20.9 | 29.0 | 0.00 | 0.00 | 0.00 | 45 | 1010.7 |
| 20260505192753 | 16 | 16 | 14.5 | 17.7 | 0.00 | 0.00 | 0.00 | 44 | 1010.8 |
| 20260505192251 | 16 | 14 | 14.5 | 20.9 | 0.00 | 0.00 | 0.00 | 44 | 1010.7 |
| 20260505191748 | 16 | 27 | 14.5 | 25.7 | 0.00 | 0.00 | 0.00 | 43 | 1010.9 |
| 20260505191247 | 16 | 32 | 17.7 | 22.5 | 0.00 | 0.00 | 0.00 | 43 | 1010.9 |
| 20260505190743 | 16 | 24 | 17.7 | 24.1 | 0.00 | 0.00 | 0.00 | 44 | 1011.0 |
| 20260505190243 | 16 | 54 | 12.9 | 27.4 | 0.00 | 0.00 | 0.00 | 45 | 1010.9 |
| 20260505185739 | 15 | 43 | 14.5 | 29.0 | 0.00 | 0.00 | 0.00 | 47 | 1011.1 |
| 20260505185236 | 15 | 28 | 12.9 | 16.1 | 0.00 | 0.00 | 0.00 | 46 | 1010.9 |
| 20260505184732 | 15 | 36 | 17.7 | 24.1 | 0.00 | 0.00 | 0.00 | 46 | 1010.9 |
| 20260505184230 | 15 | 355 | 14.5 | 19.3 | 0.00 | 0.00 | 0.00 | 47 | 1011.1 |
| 20260505183726 | 15 | 15 | 19.3 | 25.7 | 0.00 | 0.00 | 0.00 | 46 | 1011.6 |
| 20260505183224 | 15 | 3 | 9.7 | 24.1 | 0.00 | 0.00 | 0.00 | 46 | 1010.8 |
| 20260505182720 | 16 | 8 | 12.9 | 19.3 | 0.00 | 0.00 | 0.00 | 45 | 1010.9 |
| 20260505182217 | 15 | 6 | 16.1 | 19.3 | 0.00 | 0.00 | 0.00 | 47 | 1010.9 |
| 20260505181713 | 15 | 33 | 22.5 | 33.8 | 0.00 | 0.00 | 0.00 | 46 | 1011.2 |
| 20260505181211 | 15 | 0 | 12.9 | 25.7 | 0.00 | 0.00 | 0.00 | 47 | 1011.1 |
| 20260505180707 | 15 | 351 | 19.3 | 24.1 | 0.00 | 0.00 | 0.00 | 46 | 1011.3 |
| 20260505180204 | 15 | 29 | 9.7 | 22.5 | 0.00 | 0.00 | 0.00 | 48 | 1011.1 |
| 20260505175700 | 15 | 18 | 16.1 | 24.1 | 0.00 | 0.00 | 0.00 | 46 | 1011.3 |
| 20260505175157 | 15 | 30 | 17.7 | 22.5 | 0.00 | 0.00 | 0.00 | 46 | 1011.2 |
| 20260505174653 | 16 | 7 | 25.7 | 27.4 | 0.00 | 0.00 | 0.00 | 45 | 1011.1 |
| 20260505174149 | 15 | 17 | 17.7 | 30.6 | 0.00 | 0.00 | 0.00 | 47 | 1011.1 |
| 20260505173646 | 16 | 34 | 9.7 | 27.4 | 0.00 | 0.00 | 0.00 | 44 | 1011.0 |
| 20260505173144 | 15 | 34 | 17.7 | 33.8 | 0.00 | 0.00 | 0.00 | 46 | 1010.8 |
| 20260505172641 | 15 | 354 | 16.1 | 24.1 | 0.00 | 0.00 | 0.00 | 47 | 1011.1 |
| 20260505172137 | 16 | 9 | 22.5 | 30.6 | 0.00 | 0.00 | 0.00 | 46 | 1010.9 |
| 20260505171632 | 15 | 34 | 11.3 | 24.1 | 0.00 | 0.00 | 0.00 | 47 | 1010.9 |
| 20260505171129 | 16 | 1 | 16.1 | 24.1 | 0.00 | 0.00 | 0.00 | 45 | 1011.0 |
| 20260505170627 | 16 | 41 | 17.7 | 30.6 | 0.00 | 0.00 | 0.00 | 46 | 1011.3 |
| 20260505170123 | 15 | 50 | 14.5 | 29.0 | 0.00 | 0.00 | 0.00 | 49 | 1010.9 |
| 20260505165618 | 15 | 49 | 17.7 | 29.0 | 0.00 | 0.00 | 0.00 | 49 | 1010.8 |
| 20260505165114 | 15 | 0 | 25.7 | 32.2 | 0.00 | 0.00 | 0.00 | 48 | 1011.2 |
| 20260505164610 | 15 | 45 | 19.3 | 30.6 | 0.00 | 0.00 | 0.00 | 48 | 1011.0 |
| 20260505164108 | 15 | 33 | 12.9 | 24.1 | 0.00 | 0.00 | 0.00 | 48 | 1011.0 |
| 20260505163606 | 15 | 25 | 12.9 | 30.6 | 0.00 | 0.00 | 0.00 | 49 | 1011.1 |
| 20260505163103 | 15 | 39 | 14.5 | 25.7 | 0.00 | 0.00 | 0.00 | 49 | 1011.3 |
| 20260505162600 | 13 | 30 | 24.1 | 27.4 | 0.00 | 0.00 | 0.00 | 51 | 1011.2 |
| 20260505162058 | 13 | 13 | 22.5 | 27.4 | 0.00 | 0.00 | 0.00 | 50 | 1011.1 |
| 20260505161555 | 14 | 16 | 17.7 | 27.4 | 0.00 | 0.00 | 0.00 | 49 | 1011.2 |
| 20260505161052 | 14 | 17 | 14.5 | 30.6 | 0.00 | 0.00 | 0.00 | 49 | 1010.9 |
| 20260505160550 | 14 | 17 | 24.1 | 25.7 | 0.00 | 0.00 | 0.00 | 47 | 1011.0 |
| 20260505153026 | 13 | 11 | 20.9 | 32.2 | 0.00 | 0.00 | 0.00 | 48 | 1010.4 |
| 20260505152523 | 13 | 7 | 29.0 | 32.2 | 0.00 | 0.00 | 0.00 | 49 | 1010.3 |
| 20260505152019 | 13 | 14 | 25.7 | 30.6 | 0.00 | 0.00 | 0.00 | 49 | 1010.1 |
| 20260505151514 | 13 | 34 | 29.0 | 29.0 | 0.00 | 0.00 | 0.00 | 49 | 1010.0 |
| 20260505151012 | 13 | 352 | 22.5 | 25.7 | 0.00 | 0.00 | 0.00 | 47 | 1010.1 |
| 20260505150508 | 12 | 21 | 17.7 | 37.0 | 0.00 | 0.00 | 0.00 | 49 | 1010.2 |
| 20260505140433 | 11 | 16 | 20.9 | 30.6 | 0.00 | 0.00 | 0.00 | 51 | 1009.9 |
| 20260505124847 | 12 | 353 | 19.3 | 27.4 | 0.00 | 0.00 | 0.00 | 53 | 1008.0 |
| 20260505124344 | 12 | 351 | 17.7 | 25.7 | 0.00 | 0.00 | 0.00 | 54 | 1008.1 |
| 20260505123839 | 12 | 343 | 24.1 | 33.8 | 0.00 | 0.00 | 0.00 | 54 | 1007.8 |
| 20260505123337 | 12 | 340 | 19.3 | 30.6 | 0.00 | 0.00 | 0.00 | 54 | 1007.8 |
| 20260505122832 | 12 | 2 | 19.3 | 25.7 | 0.00 | 0.00 | 0.00 | 54 | 1007.7 |
| 20260505122330 | 12 | 353 | 19.3 | 22.5 | 0.00 | 0.00 | 0.00 | 54 | 1007.3 |
| 20260505121826 | 12 | 351 | 16.1 | 27.4 | 0.00 | 0.00 | 0.00 | 54 | 1007.6 |
| 20260505121324 | 12 | 15 | 20.9 | 30.6 | 0.00 | 0.00 | 0.00 | 55 | 1007.2 |
| 20260505120820 | 12 | 3 | 19.3 | 27.4 | 0.00 | 0.00 | 0.00 | 55 | 1007.1 |
| 20260505120316 | 12 | 19 | 24.1 | 29.0 | 0.00 | 0.00 | 0.00 | 55 | 1007.3 |
| 20260505115814 | 12 | 8 | 19.3 | 30.6 | 0.00 | 0.00 | 0.00 | 56 | 1007.3 |
| 20260505115312 | 12 | 359 | 22.5 | 24.1 | 0.00 | 0.00 | 0.00 | 56 | 1007.2 |
| 20260505114809 | 12 | 359 | 20.9 | 29.0 | 0.00 | 0.00 | 0.00 | 56 | 1007.0 |
| 20260505114305 | 12 | 1 | 20.9 | 25.7 | 0.00 | 0.00 | 0.00 | 56 | 1007.2 |
| 20260505113757 | 12 | 21 | 24.1 | 29.0 | 0.00 | 0.00 | 0.00 | 56 | 1007.1 |
| 20260505113253 | 12 | 18 | 19.3 | 24.1 | 0.00 | 0.00 | 0.00 | 57 | 1007.2 |
| 20260505112748 | 13 | 354 | 20.9 | 35.4 | 0.00 | 0.00 | 0.00 | 57 | 1007.0 |
| 20260505112246 | 13 | 343 | 17.7 | 29.0 | 0.00 | 0.00 | 0.00 | 58 | 1007.1 |
| 20260505111741 | 13 | 3 | 30.6 | 32.2 | 0.00 | 0.00 | 0.00 | 58 | 1007.0 |
| 20260505111237 | 13 | 8 | 19.3 | 22.5 | 0.00 | 0.00 | 0.00 | 58 | 1007.0 |
| 20260505110733 | 13 | 0 | 17.7 | 30.6 | 0.00 | 0.00 | 0.00 | 58 | 1006.8 |
| 20260505110231 | 13 | 352 | 19.3 | 35.4 | 0.00 | 0.00 | 0.00 | 58 | 1006.7 |
| 20260505102207 | 15 | 329 | 20.9 | 33.8 | 0.00 | 0.00 | 0.00 | 48 | 1006.2 |
| 20260505101705 | 16 | 334 | 24.1 | 37.0 | 0.00 | 0.00 | 0.00 | 44 | 1005.8 |
| 20260505101201 | 16 | 350 | 29.0 | 38.6 | 0.00 | 0.00 | 0.00 | 41 | 1005.8 |
| 20260505100657 | 17 | 328 | 30.6 | 41.8 | 0.00 | 0.00 | 0.00 | 37 | 1005.6 |
| 20260505100154 | 17 | 315 | 20.9 | 37.0 | 0.00 | 0.00 | 0.00 | 34 | 1005.7 |
| 20260505095650 | 18 | 335 | 27.4 | 38.6 | 0.00 | 0.00 | 0.00 | 30 | 1005.6 |
| 20260505095148 | 18 | 318 | 17.7 | 30.6 | 0.00 | 0.00 | 0.00 | 29 | 1005.3 |
| 20260505094643 | 18 | 330 | 12.9 | 19.3 | 0.00 | 0.00 | 0.00 | 29 | 1005.2 |
| 20260505094140 | 17 | 284 | 9.7 | 12.9 | 0.00 | 0.00 | 0.00 | 31 | 1005.0 |
| 20260505093636 | 17 | 275 | 8.0 | 14.5 | 0.00 | 0.00 | 0.00 | 31 | 1004.8 |
| 20260505093134 | 17 | 287 | 6.4 | 14.5 | 0.00 | 0.00 | 0.00 | 31 | 1004.9 |
| 20260505092631 | 17 | 305 | 12.9 | 14.5 | 0.00 | 0.00 | 0.00 | 31 | 1005.2 |
| 20260505092130 | 18 | 305 | 12.9 | 16.1 | 0.00 | 0.00 | 0.00 | 30 | 1004.9 |
| 20260505091626 | 18 | 318 | 8.0 | 9.7 | 0.00 | 0.00 | 0.00 | 30 | 1004.9 |
| 20260505091124 | 18 | 216 | 4.8 | 11.3 | 0.00 | 0.00 | 0.00 | 30 | 1004.4 |
| 20260505090621 | 18 | 222 | 11.3 | 12.9 | 0.00 | 0.00 | 0.00 | 30 | 1004.2 |
| 20260505090119 | 18 | 230 | 6.4 | 12.9 | 0.00 | 0.00 | 0.00 | 29 | 1004.3 |
| 20260505085617 | 19 | 216 | 6.4 | 11.3 | 0.00 | 0.00 | 0.00 | 29 | 1004.2 |
| 20260505085115 | 19 | 233 | 1.6 | 6.4 | 0.00 | 0.00 | 0.00 | 29 | 1004.2 |
| 20260505084612 | 20 | 240 | 4.8 | 14.5 | 0.00 | 0.00 | 0.00 | 28 | 1004.1 |
| 20260505084111 | 20 | 262 | 3.2 | 12.9 | 0.00 | 0.00 | 0.00 | 28 | 1004.1 |
| 20260505083608 | 20 | 222 | 9.7 | 14.5 | 0.00 | 0.00 | 0.00 | 27 | 1003.9 |
| 20260505083104 | 20 | 235 | 9.7 | 19.3 | 0.00 | 0.00 | 0.00 | 27 | 1004.1 |
| 20260505082600 | 20 | 232 | 11.3 | 16.1 | 0.00 | 0.00 | 0.00 | 27 | 1004.1 |
| 20260505082057 | 20 | 234 | 6.4 | 12.9 | 0.00 | 0.00 | 0.00 | 27 | 1004.0 |
| 20260505081553 | 20 | 227 | 12.9 | 19.3 | 0.00 | 0.00 | 0.00 | 27 | 1004.2 |